FW9140 Weather Reports


time (UTC)temp
C
wind
direction
speed
KPH
gust
KPH
rain 1hr
cm
rain 24hr
cm
rain mn
cm
humidity
%
barometer
mb
20260503230614 24 251 8.0 9.7 0.00 0.00 0.00 34 1015.0
20260503230110 24 275 1.6 3.2 0.00 0.00 0.00 34 1014.7
20260503225608 24 268 4.8 8.0 0.00 0.00 0.00 34 1014.9
20260503225108 23 249 6.4 11.3 0.00 0.00 0.00 35 1015.1
20260503224606 23 243 4.8 11.3 0.00 0.00 0.00 35 1015.2
20260503224103 23 258 6.4 12.9 0.00 0.00 0.00 36 1015.0
20260503223601 23 280 9.7 12.9 0.00 0.00 0.00 35 1015.4
20260503223056 23 261 4.8 8.0 0.00 0.00 0.00 38 1015.3
20260503222555 23 261 4.8 8.0 0.00 0.00 0.00 38 1015.3
20260503222052 23 261 4.8 8.0 0.00 0.00 0.00 38 1015.7
20260503221550 23 234 6.4 11.3 0.00 0.00 0.00 38 1015.6
20260503221047 23 234 6.4 11.3 0.00 0.00 0.00 38 1015.7
20260503220543 22 273 11.3 12.9 0.00 0.00 0.00 38 1015.9
20260503220041 22 273 4.8 4.8 0.00 0.00 0.00 40 1016.0
20260503215538 22 287 8.0 12.9 0.00 0.00 0.00 40 1016.0
20260503215034 22 252 8.0 9.7 0.00 0.00 0.00 41 1016.1
20260503214533 22 216 4.8 8.0 0.00 0.00 0.00 42 1016.1
20260503214029 22 216 4.8 8.0 0.00 0.00 0.00 42 1016.1
20260503213527 22 255 6.4 8.0 0.00 0.00 0.00 43 1016.4
20260503213024 22 290 6.4 12.9 0.00 0.00 0.00 42 1016.2
20260503212521 22 278 8.0 9.7 0.00 0.00 0.00 42 1016.1
20260503212019 21 260 8.0 11.3 0.00 0.00 0.00 43 1016.3
20260503211516 22 268 11.3 14.5 0.00 0.00 0.00 43 1016.6
20260503211011 21 279 4.8 11.3 0.00 0.00 0.00 45 1016.5
20260503210508 21 255 4.8 9.7 0.00 0.00 0.00 45 1016.3
20260503210004 21 253 6.4 11.3 0.00 0.00 0.00 45 1016.5
20260503205500 22 269 14.5 17.7 0.00 0.00 0.00 42 1016.3
20260503204956 22 269 14.5 17.7 0.00 0.00 0.00 42 1016.6
20260503204454 22 269 14.5 17.7 0.00 0.00 0.00 42 1016.3
20260503203950 22 269 14.5 17.7 0.00 0.00 0.00 42 1016.6
20260503203448 22 269 14.5 17.7 0.00 0.00 0.00 42 1016.5
20260503202944 22 269 14.5 17.7 0.00 0.00 0.00 42 1016.7
20260503202443 21 250 3.2 3.2 0.00 0.00 0.00 44 1016.6
20260503201941 21 249 9.7 12.9 0.00 0.00 0.00 42 1016.8
20260503201438 21 262 6.4 8.0 0.00 0.00 0.00 44 1016.5
20260503200935 22 288 6.4 9.7 0.00 0.00 0.00 42 1016.6
20260503200432 22 278 12.9 16.1 0.00 0.00 0.00 42 1016.8
20260503195928 21 257 4.8 4.8 0.00 0.00 0.00 43 1016.9
20260503195426 21 257 4.8 4.8 0.00 0.00 0.00 43 1016.7
20260503194922 21 250 6.4 9.7 0.00 0.00 0.00 43 1017.0
20260503194419 21 250 6.4 9.7 0.00 0.00 0.00 43 1017.0
20260503193914 21 250 6.4 9.7 0.00 0.00 0.00 43 1017.1
20260503193410 21 250 6.4 9.7 0.00 0.00 0.00 43 1017.2
20260503192906 21 250 6.4 9.7 0.00 0.00 0.00 43 1017.1
20260503192402 21 250 6.4 9.7 0.00 0.00 0.00 43 1017.2
20260503191858 22 242 3.2 4.8 0.00 0.00 0.00 44 1017.2
20260503191356 22 242 3.2 4.8 0.00 0.00 0.00 44 1017.6
20260503190852 22 242 3.2 4.8 0.00 0.00 0.00 44 1017.5
20260503190349 21 280 6.4 9.7 0.00 0.00 0.00 43 1017.4
20260503185846 21 280 6.4 9.7 0.00 0.00 0.00 43 1017.6
20260503185342 21 280 6.4 9.7 0.00 0.00 0.00 43 1017.6
20260503184837 21 256 6.4 11.3 0.00 0.00 0.00 43 1017.7
20260503184333 21 251 4.8 11.3 0.00 0.00 0.00 44 1017.6
20260503183829 21 265 4.8 11.3 0.00 0.00 0.00 42 1017.6
20260503183326 22 276 4.8 8.0 0.00 0.00 0.00 43 1017.8
20260503182824 22 283 1.6 1.6 0.00 0.00 0.00 41 1017.7
20260503182323 21 294 3.2 3.2 0.00 0.00 0.00 41 1018.0
20260503181819 21 254 4.8 4.8 0.00 0.00 0.00 43 1018.0
20260503181316 21 316 4.8 11.3 0.00 0.00 0.00 42 1017.8
20260503180813 21 252 1.6 3.2 0.00 0.00 0.00 43 1018.0
20260503180311 21 321 4.8 4.8 0.00 0.00 0.00 44 1018.1
20260503175807 21 343 6.4 8.0 0.00 0.00 0.00 45 1018.2
20260503175305 20 248 4.8 4.8 0.00 0.00 0.00 45 1018.2
20260503174800 21 251 4.8 8.0 0.00 0.00 0.00 45 1018.3
20260503174259 21 283 0.0 8.0 0.00 0.00 0.00 44 1018.5
20260503173754 21 296 0.0 1.6 0.00 0.00 0.00 45 1018.3
20260503173250 20 241 6.4 8.0 0.00 0.00 0.00 46 1018.5
20260503172747 22 241 4.8 4.8 0.00 0.00 0.00 44 1018.4
20260503172244 21 264 0.0 8.0 0.00 0.00 0.00 44 1018.3
20260503171740 21 291 4.8 9.7 0.00 0.00 0.00 43 1018.4
20260503171238 21 135 3.2 4.8 0.00 0.00 0.00 45 1018.5
20260503170735 21 268 3.2 4.8 0.00 0.00 0.00 45 1018.6
20260503170231 21 284 1.6 1.6 0.00 0.00 0.00 47 1018.5
20260503160153 21 267 1.6 1.6 0.00 0.00 0.00 52 1018.9
20260503150623 16 296 1.6 4.8 0.00 0.00 0.00 68 1019.0
20260503150119 15 322 0.0 3.2 0.00 0.00 0.00 73 1018.9
20260503131013 10 92 4.8 4.8 0.00 0.00 0.00 85 1018.2
20260503130510 10 297 1.6 3.2 0.00 0.00 0.00 86 1018.3
20260503110401 11 264 0.0 0.0 0.00 0.00 0.00 80 1018.4
20260503090252 12 160 1.6 3.2 0.00 0.00 0.00 75 1018.1
20260503081220 12 239 1.6 3.2 0.00 0.00 0.00 75 1018.1
20260503080715 12 233 1.6 1.6 0.00 0.00 0.00 76 1018.0
20260503080213 12 296 1.6 1.6 0.00 0.00 0.00 75 1018.0
20260503072649 12 315 1.6 1.6 0.00 0.00 0.00 80 1017.9
20260503072146 12 286 0.0 1.6 0.00 0.00 0.00 80 1018.1
20260503071643 12 310 1.6 3.2 0.00 0.00 0.00 80 1017.9
20260503071139 12 303 0.0 1.6 0.00 0.00 0.00 82 1018.0
20260503070636 12 283 0.0 0.0 0.00 0.00 0.00 82 1017.9
20260503070135 12 284 0.0 1.6 0.00 0.00 0.00 81 1018.0
20260503055049 12 284 0.0 1.6 0.00 0.00 0.00 82 1017.9
20260503054545 12 284 0.0 0.0 0.00 0.00 0.00 83 1017.9
20260503054043 12 284 0.0 0.0 0.00 0.00 0.00 82 1018.0
20260503053541 12 285 0.0 0.0 0.00 0.00 0.00 82 1018.2
20260503053038 12 292 0.0 1.6 0.00 0.00 0.00 81 1017.8
20260503052535 12 286 0.0 1.6 0.00 0.00 0.00 81 1018.1
20260503052031 12 269 0.0 0.0 0.00 0.00 0.00 81 1018.1
20260503051527 12 270 0.0 0.0 0.00 0.00 0.00 80 1018.2
20260503051025 12 262 0.0 0.0 0.00 0.00 0.00 79 1018.1
20260503050520 13 261 0.0 0.0 0.00 0.00 0.00 78 1018.2
20260503050018 13 260 0.0 0.0 0.00 0.00 0.00 78 1018.1
20260503045515 13 261 0.0 0.0 0.00 0.00 0.00 77 1018.0
20260503045012 13 260 0.0 0.0 0.00 0.00 0.00 76 1018.1
20260503044509 13 260 0.0 0.0 0.00 0.00 0.00 75 1018.1
20260503044006 13 261 0.0 0.0 0.00 0.00 0.00 75 1018.1
20260503043502 13 260 0.0 0.0 0.00 0.00 0.00 75 1017.9
20260503042959 13 267 0.0 1.6 0.00 0.00 0.00 74 1017.9
20260503042455 14 274 0.0 1.6 0.00 0.00 0.00 73 1017.9
20260503041952 15 266 0.0 8.0 0.00 0.00 0.00 73 1017.9
20260503041449 15 289 6.4 9.7 0.00 0.00 0.00 70 1017.9
20260503040947 16 258 1.6 3.2 0.00 0.00 0.00 64 1017.8
20260503040444 16 247 1.6 1.6 0.00 0.00 0.00 64 1017.5
20260503035941 16 291 0.0 1.6 0.00 0.00 0.00 63 1017.4
20260503035438 17 271 0.0 3.2 0.00 0.00 0.00 62 1017.4
20260503034936 16 351 1.6 3.2 0.00 0.00 0.00 63 1017.3
20260503034433 16 74 1.6 3.2 0.00 0.00 0.00 64 1017.3
20260503033929 16 249 0.0 1.6 0.00 0.00 0.00 64 1017.1
20260503033427 16 283 1.6 3.2 0.00 0.00 0.00 63 1017.0
20260503032925 16 318 1.6 3.2 0.00 0.00 0.00 63 1017.2
20260503032423 17 317 1.6 1.6 0.00 0.00 0.00 61 1017.0
20260503031920 17 282 0.0 1.6 0.00 0.00 0.00 60 1017.0
20260503031418 17 263 1.6 1.6 0.00 0.00 0.00 59 1017.0
20260503030914 17 291 0.0 1.6 0.00 0.00 0.00 58 1016.8
20260503030411 17 284 0.0 0.0 0.00 0.00 0.00 57 1016.9
20260503025908 18 284 0.0 1.6 0.00 0.00 0.00 55 1016.8
20260503025405 18 283 1.6 1.6 0.00 0.00 0.00 52 1016.8
20260503024902 18 282 0.0 0.0 0.00 0.00 0.00 54 1017.0
20260503024359 19 278 0.0 1.6 0.00 0.00 0.00 51 1016.9
20260503023856 20 290 1.6 1.6 0.00 0.00 0.00 49 1016.9
20260503023353 20 280 0.0 1.6 0.00 0.00 0.00 48 1016.9
20260503022849 20 240 1.6 1.6 0.00 0.00 0.00 47 1017.0
20260503022344 20 292 0.0 1.6 0.00 0.00 0.00 47 1016.9
20260503021841 20 258 0.0 1.6 0.00 0.00 0.00 49 1017.0
20260503021337 21 251 1.6 3.2 0.00 0.00 0.00 44 1016.9
20260503020834 22 252 1.6 1.6 0.00 0.00 0.00 42 1017.0
20260503020332 22 272 0.0 0.0 0.00 0.00 0.00 42 1017.0
20260503015828 22 234 0.0 1.6 0.00 0.00 0.00 42 1016.9
20260503015325 23 269 0.0 1.6 0.00 0.00 0.00 42 1017.1
20260503014821 23 237 1.6 1.6 0.00 0.00 0.00 38 1017.0
20260503014319 23 207 3.2 3.2 0.00 0.00 0.00 35 1017.2
20260503013816 23 213 3.2 4.8 0.00 0.00 0.00 35 1017.2
20260503013313 23 226 0.0 0.0 0.00 0.00 0.00 35 1017.4
20260503012810 24 226 1.6 1.6 0.00 0.00 0.00 36 1017.2
20260503012308 24 226 1.6 3.2 0.00 0.00 0.00 35 1017.4
20260503011804 24 216 1.6 1.6 0.00 0.00 0.00 33 1017.4
20260503011301 24 241 0.0 1.6 0.00 0.00 0.00 36 1017.4
20260503010758 25 255 1.6 4.8 0.00 0.00 0.00 36 1017.3
20260503010255 25 187 4.8 4.8 0.00 0.00 0.00 31 1017.5
20260503005752 25 229 1.6 1.6 0.00 0.00 0.00 32 1017.3
20260503005249 25 250 1.6 3.2 0.00 0.00 0.00 35 1017.7
20260503004745 25 245 0.0 3.2 0.00 0.00 0.00 34 1017.5
20260503004243 24 250 3.2 4.8 0.00 0.00 0.00 34 1017.5
20260503003740 23 263 4.8 8.0 0.00 0.00 0.00 33 1017.5
20260503003237 23 261 4.8 9.7 0.00 0.00 0.00 33 1017.6
20260503002734 24 247 6.4 8.0 0.00 0.00 0.00 33 1017.6
20260503002231 23 286 3.2 8.0 0.00 0.00 0.00 34 1017.4
20260503001727 23 251 6.4 8.0 0.00 0.00 0.00 35 1017.5
20260503001223 23 241 6.4 9.7 0.00 0.00 0.00 33 1017.6
20260503000722 24 262 1.6 8.0 0.00 0.00 0.00 36 1017.6
20260503000219 23 230 1.6 3.2 0.00 0.00 0.00 39 1017.6
20260502235716 23 240 8.0 11.3 0.00 0.00 0.00 36 1017.8
20260502235214 25 205 3.2 8.0 0.00 0.00 0.00 35 1017.6
20260502234709 24 244 1.6 3.2 0.00 0.00 0.00 36 1017.7
20260502234207 23 233 4.8 8.0 0.00 0.00 0.00 36 1017.7
20260502233702 24 238 11.3 12.9 0.00 0.00 0.00 33 1018.0
20260502233159 23 232 6.4 8.0 0.00 0.00 0.00 34 1018.0
20260502232655 23 224 3.2 9.7 0.00 0.00 0.00 33 1018.0
20260502232153 23 267 4.8 8.0 0.00 0.00 0.00 33 1018.0
20260502231649 23 255 8.0 9.7 0.00 0.00 0.00 33 1018.1
20260502231147 23 253 6.4 8.0 0.00 0.00 0.00 33 1018.4